Sussex, NJ

8:18 AM EST on November 13, 2019 (GMT -0500)
Sussex

Weather History for KFWN - September, 2019

Change the Weather History Date:

Monday, September 23, 2019

  Actual Average Record
Temperature  
Mean Temperature 74 °F -  
Max Temperature 90 °F 70 °F 90 °F (1970)
Min Temperature 60 °F 46 °F 29 °F (1953)
Cooling Degree Days 10    
Growing Degree Days 24 (Base 50)    
Moisture  
Dew Point 61 °F    
Average Humidity 83    
Maximum Humidity 97    
Minimum Humidity 39    
Precipitation  
Precipitation 0.00 in - - ()
Sea Level Pressure  
Sea Level Pressure 29.90 in    
Wind  
Wind Speed 1 mph ()    
Max Wind Speed 14 mph    
Max Gust Speed 22 mph    
Visibility 4.1 miles    
Events Fog    
Averages and records for this station are not official NWS values.
T = Trace of Precipitation, MM = Missing Value Source: Averaged Metar Reports

Daily Weather History Graph

Daily Weather History Graph

Search for Another Location

Airport or City:

Astronomy

Sep. 23, 2019 Rise Set
Actual Time 6:46 AM EDT 6:54 PM EDT
Civil Twilight 6:19 AM EDT 7:21 PM EDT
Nautical Twilight 5:46 AM EDT 7:54 PM EDT
Astronomical Twilight 5:14 AM EDT 8:26 PM EDT
Moon 12:23 AM EDT (9/23) 3:49 PM EDT (9/23)
Length of Visible Light 13h 02m
Length of Day
12h 07m
Waning Crescent, 33% of the Moon is Illuminated
Sep 23
Waning Crescent
Sep 28
New
Oct 5
First Quarter
Oct 13
Full
Oct 21
Last Quarter

Hourly Weather History & Observations

Time (EDT) Temp. Heat Index Dew Point Humidity Pressure Visibility Wind Dir Wind Speed Gust Speed Precip Events Conditions
12:53 AM 64.0 °F - 62.1 °F 93% 29.98 in 4.0 mi Calm Calm - N/A   Clear
1:50 AM 64.4 °F - 62.6 °F 94% 29.97 in 1.8 mi Calm Calm - N/A   Clear
1:53 AM 63.0 °F - 62.1 °F 97% 29.96 in 2.0 mi Calm Calm - N/A   Clear
2:00 AM 64.0 °F - 62.1 °F 93% 29.97 in 4.0 mi Calm Calm - N/A   Clear
2:23 AM 64.0 °F - 62.1 °F 93% 29.96 in 2.5 mi Calm Calm - N/A   Clear
2:36 AM 64.9 °F - 63.0 °F 93% 29.96 in 4.0 mi Calm Calm - N/A   Clear
2:53 AM 63.0 °F - 62.1 °F 97% 29.95 in 3.0 mi Calm Calm - N/A   Clear
3:03 AM 63.0 °F - 62.1 °F 97% 29.95 in 1.5 mi Calm Calm - N/A   Clear
3:10 AM 63.0 °F - 62.1 °F 97% 29.95 in 1.0 mi Calm Calm - N/A   Clear
3:14 AM 63.0 °F - 61.0 °F 93% 29.96 in 2.0 mi Calm Calm - N/A   Clear
3:22 AM 64.0 °F - 62.1 °F 93% 29.95 in 4.0 mi Calm Calm - N/A   Clear
3:43 AM 63.0 °F - 62.1 °F 97% 29.95 in 1.8 mi Calm Calm - N/A   Clear
3:48 AM 62.6 °F - 60.8 °F 94% 29.94 in 0.8 mi Calm Calm - N/A   Mist
3:53 AM 62.1 °F - 60.1 °F 93% 29.94 in 0.2 mi Calm Calm - N/A Fog Fog
4:18 AM 63.0 °F - 60.1 °F 90% 29.94 in 1.2 mi Calm Calm - N/A   Partly Cloudy
4:29 AM 61.0 °F - 60.1 °F 97% 29.94 in 1.0 mi Calm Calm - N/A   Mist
4:32 AM 61.0 °F - 60.1 °F 97% 29.94 in 1.8 mi Calm Calm - N/A   Scattered Clouds
4:35 AM 61.0 °F - 60.1 °F 97% 29.93 in 1.0 mi Calm Calm - N/A   Mist
4:37 AM 61.0 °F - 60.1 °F 97% 29.93 in 0.8 mi Calm Calm - N/A   Mist
4:53 AM 62.1 °F - 60.1 °F 93% 29.92 in 0.8 mi Calm Calm - N/A   Mist
4:56 AM 62.1 °F - 60.1 °F 93% 29.93 in 1.2 mi Calm Calm - N/A   Scattered Clouds
4:59 AM 62.1 °F - 60.1 °F 93% 29.93 in 0.8 mi Calm Calm - N/A   Mist
5:06 AM 62.1 °F - 60.1 °F 93% 29.93 in 0.5 mi Calm Calm - N/A Fog Fog
5:25 AM 61.0 °F - 59.0 °F 93% 29.93 in 1.0 mi Calm Calm - N/A   Mist
5:28 AM 61.0 °F - 60.1 °F 97% 29.93 in 0.8 mi Calm Calm - N/A   Mist
5:40 AM 61.0 °F - 60.1 °F 97% 29.93 in 2.0 mi Calm Calm - N/A   Mostly Cloudy
5:43 AM 61.0 °F - 60.1 °F 97% 29.93 in 4.0 mi Calm Calm - N/A   Scattered Clouds
5:53 AM 61.0 °F - 60.1 °F 97% 29.91 in 3.0 mi Calm Calm - N/A   Partly Cloudy
5:57 AM 61.0 °F - 60.1 °F 97% 29.92 in 1.8 mi Calm Calm - N/A   Partly Cloudy
6:01 AM 61.0 °F - 59.0 °F 93% 29.92 in 0.8 mi Calm Calm - N/A   Mist
6:13 AM 60.1 °F - 57.9 °F 93% 29.92 in 0.5 mi Calm Calm - N/A Fog Fog
6:16 AM 60.1 °F - 59.0 °F 96% 29.92 in 1.2 mi Calm Calm - N/A   Partly Cloudy
6:21 AM 61.0 °F - 59.0 °F 93% 29.92 in 2.0 mi Calm Calm - N/A   Partly Cloudy
6:26 AM 60.1 °F - 59.0 °F 96% 29.93 in 1.0 mi Calm Calm - N/A   Mist
6:34 AM 61.0 °F - 59.0 °F 93% 29.93 in 0.5 mi Calm Calm - N/A Fog Fog
6:53 AM 60.1 °F - 59.0 °F 96% 29.92 in 0.5 mi Calm Calm - N/A Fog Fog
6:58 AM 61.0 °F - 59.0 °F 93% 29.93 in 1.5 mi Calm Calm - N/A   Scattered Clouds
7:06 AM 61.0 °F - 59.0 °F 93% 29.93 in 3.0 mi Calm Calm - N/A   Partly Cloudy
7:53 AM 64.0 °F - 63.0 °F 96% 29.92 in 3.0 mi Calm Calm - N/A   Partly Cloudy
8:53 AM 69.1 °F - 66.0 °F 90% 29.92 in 9.0 mi Variable 5.8 mph - N/A   Clear
9:53 AM 75.0 °F - 66.9 °F 76% 29.91 in 10.0 mi SW 6.9 mph - N/A   Clear
10:53 AM 82.0 °F 84.9 °F 68.0 °F 62% 29.88 in 10.0 mi Variable 4.6 mph - N/A   Clear
11:53 AM 86.0 °F 87.3 °F 64.0 °F 48% 29.85 in 10.0 mi SSW 12.7 mph 17.3 mph N/A   Clear
12:53 PM 89.1 °F 90.0 °F 63.0 °F 42% 29.82 in 10.0 mi SW 8.1 mph - N/A   Clear
1:53 PM 88.0 °F 88.7 °F 63.0 °F 43% 29.80 in 10.0 mi SSW 9.2 mph 21.9 mph 0.00 in   Clear
2:53 PM 88.0 °F 87.6 °F 60.1 °F 39% 29.78 in 10.0 mi SSW 13.8 mph 20.7 mph N/A   Clear
3:53 PM 86.0 °F 86.1 °F 61.0 °F 43% 29.76 in 10.0 mi SW 9.2 mph - N/A   Clear
4:53 PM 87.1 °F 87.0 °F 61.0 °F 41% 29.75 in 10.0 mi SW 8.1 mph - N/A   Mostly Cloudy
5:53 PM 82.9 °F 83.7 °F 62.1 °F 49% 29.74 in 10.0 mi SW 5.8 mph - N/A   Mostly Cloudy
6:53 PM 80.1 °F 81.5 °F 63.0 °F 56% 29.74 in 10.0 mi Variable 4.6 mph - N/A   Overcast
7:53 PM 80.1 °F 81.2 °F 62.1 °F 54% 29.75 in 10.0 mi Variable 4.6 mph - N/A   Overcast
8:53 PM 79.0 °F - 62.1 °F 56% 29.75 in 10.0 mi Variable 3.5 mph - N/A   Overcast
9:53 PM 77.0 °F - 63.0 °F 62% 29.76 in 10.0 mi Variable 6.9 mph - N/A   Overcast
10:53 PM 75.0 °F - 64.0 °F 69% 29.77 in 10.0 mi SW 4.6 mph - N/A   Overcast
11:53 PM 66.9 °F - 55.9 °F 68% 29.78 in 10.0 mi Calm Calm - 0.00 in   Mostly Cloudy